User: anonymous   Login
Location: Unspecified
(0.0000°N, 0.0000°E)
Time: 19:12:21
(UTC+00:00)
Language:

COSMOS 2507 - Orbit

View from above orbital plane
View from above orbital plane
View from above satellite
View from above satellite

Ground track
Ground track

The orbit data is extracted from the following two-line orbital elements,

1 40920U 15050A   18288.70100722  .00000010  00000-0  20577-5 0  9999
2 40920  82.4969  23.6913 0008363 339.2284  20.8460 12.42889309138862
Epoch (UTC): 15 October 2018 16:49:27
Eccentricity: 0.0008363
inclination: 82.4969°
perigee height: 1488 km
apogee height: 1501 km
right ascension of ascending node: 23.6913°
argument of perigee: 339.2284°
revolutions per day: 12.42889309
mean anomaly at epoch: 20.8460°
orbit number at epoch: 13886

The dashed part of the orbit path shows where the satellite is in the earth's shadow,  

DLR